Location: McDonald Observatory
(30.6717°N, 104.0221°W)
Time: 08:01:36
(UTC-06:00)

Daily predictions for brighter satellites

Satellite Brightness Start Highest point End
(mag) Time Altitude Azimuth Time Altitude Azimuth Time Altitude Azimuth
CORIOLIS 4.4 18:14:44 10° SE 18:19:55 48° ENE 18:25:06 10° N
Meteor 1-12 Rocket 4.3 18:14:44 10° N 18:20:28 84° E 18:26:16 10° S
Cosmos 1271 Rocket 2.9 18:17:08 10° N 18:20:51 49° E 18:24:35 10° SSE
Aureole 1 Rocket 4.5 18:14:22 10° NNW 18:20:57 88° ENE 18:29:07 10° SSE
NOSS 3-4 (A) 4.0 18:15:42 10° S 18:21:26 40° ESE 18:27:14 10° NE
NOSS 3-4 (C) 4.0 18:15:49 10° S 18:21:32 40° ESE 18:27:19 10° NE
Atlas 2A Centaur Rocket 4.4 17:52:38 10° W 18:22:16 69° SSW 18:27:14 10° ESE
Cosmos 2219 3.3 18:16:50 10° NNW 18:22:28 89° WSW 18:28:05 10° SSE
Skynet4D Del rocket 4.3 18:20:18 10° WSW 18:26:33 56° S 18:32:04 10° E
Cosmos 1484 Rocket 2.8 18:25:15 10° SSE 18:29:15 83° ENE 18:33:16 10° N
Cosmos 1980 Rocket 3.5 18:25:11 10° SSE 18:29:22 21° E 18:33:32 10° NE
Atlas Centaur 2 1.9 18:25:13 10° W 18:30:58 81° S 18:35:25 10° ESE
Cosmos 1025 Rocket 4.1 18:35:02 10° SE 18:38:30 24° E 18:41:59 10° NE
Cosmos 1536 Rocket 3.5 18:36:32 10° S 18:40:54 86° E 18:45:15 10° N
Ariane Rocket 3.2 18:37:59 10° S 18:43:02 79° WSW 18:48:06 10° NNW
Cosmos 1666 2.8 18:39:37 10° N 18:43:21 78° W 18:47:04 10° S
Cosmos 2297 Rocket 2.6 18:38:26 10° N 18:43:44 40° ENE 18:49:00 10° SE
RESURS DK-1 4.2 18:41:41 10° SE 18:43:47 14° ESE 18:44:47 13° E
ISS -2.7 18:42:34 10° NNW 18:45:21 25° NE 18:47:11 16° E
Cosmos 1656 3.8 18:42:55 10° SSW 18:48:32 82° WNW 18:54:05 10° NNE
Cosmos 389 Rocket 4.4 18:51:15 10° NNW 18:54:21 31° W 18:57:25 10° SSW
Cosmos 1125 Rocket 4.0 18:49:54 10° SSW 18:55:09 63° WNW 19:00:25 10° N
Cosmos 1269 Rocket 4.5 18:52:06 10° N 18:57:00 37° ENE 19:01:52 10° SE
Cosmos 2084 3.4 18:53:08 10° SSW 18:57:22 60° ESE 19:00:18 18° NE
Meteor 2-4 Rocket 4.0 18:52:17 10° SSW 18:57:44 66° W 19:03:05 10° N
CZ-4 R/B 1.7 18:54:21 10° S 18:58:10 66° W 19:02:03 10° NNW
SKYMED 2 3.5 18:54:52 10° NNE 18:59:13 88° ESE 19:03:33 10° SSW
SL-16 R/B 3.9 19:06:32 10° SE 19:08:18 13° ESE 19:08:18 13° ESE
Cosmos 1048 Rocket 4.0 19:04:33 10° N 19:09:54 65° ENE 19:15:11 10° SSE
Hubble Space Telescope 1.5 19:09:05 10° W 19:13:04 47° SSW 19:15:45 19° SE
Cosmos 1184 Rocket 4.4 19:10:39 10° SSE 19:12:07 20° SE 19:12:07 20° SE
USA 238 DEB 3.7 19:06:40 10° NNW 19:13:50 81° ENE 19:21:03 10° SSE
USA 238 3.7 19:06:46 10° NNW 19:13:56 80° ENE 19:21:09 10° SSE
Cosmos 2360 4.4 19:08:50 10° S 19:14:21 53° ESE 19:18:05 21° NE
Cosmos 2322 Rocket 3.9 19:11:59 10° SE 19:13:50 14° ESE 19:13:50 14° ESE
NOAA 12 4.1 19:11:41 10° SSE 19:16:50 58° ENE 19:21:59 10° N
Okean 2 3.2 19:13:43 10° S 19:17:48 80° E 19:21:27 13° N
SL-24 R/B - RUBIN 2 4.3 19:12:18 10° SSW 19:18:43 84° ESE 19:23:07 19° NNE
Cosmos 2266 Rocket 4.1 19:12:49 10° N 19:18:55 76° W 19:25:06 10° S
MONITOR-E 4.1 19:17:04 10° S 19:20:06 84° WSW 19:23:08 10° NNW
FENGYUN 3A 3.6 19:15:01 10° SSE 19:20:20 65° ENE 19:25:39 10° N
METEOR-M 4.5 19:18:36 10° S 19:23:53 67° WSW 19:29:12 10° NNW
EO 1 Del DPAF 4.1 19:21:06 10° N 19:24:46 48° WNW 19:28:27 10° SSW
Meteor 1-15 Rocket 4.2 19:19:24 10° N 19:25:20 76° E 19:31:11 10° SSE
Cosmos 1515 4.2 19:22:07 10° SSW 19:25:49 60° W 19:29:30 11° N
YAOGAN 1 3.7 19:22:00 10° S 19:26:08 46° W 19:30:18 10° NNW
Cosmos 1892 Rocket 4.4 19:22:13 10° SSE 19:25:28 31° ESE 19:25:28 31° ESE
MINOTAUR IV R/B 4.4 19:23:07 10° NNW 19:27:37 78° ENE 19:32:03 10° SSE
DELTA 2 R/B (1) 4.4 19:23:20 10° WNW 19:28:22 34° N 19:29:51 29° NE
Cosmos 1697 Rocket 3.5 19:26:55 10° SW 19:32:22 50° WNW 19:37:51 10° N
S3M 4.2 19:26:59 10° SSE 19:32:44 44° E 19:34:50 32° NE
Delta 2 Rocket 3.8 19:30:06 10° WNW 19:35:38 87° NNE 19:37:18 44° ESE
Shenzhou-11 Module 4.3 19:33:27 10° SSW 19:34:33 16° S 19:34:33 16° S
GOES 2 Rocket 3.5 19:32:40 10° W 19:37:08 65° S 19:38:58 38° ESE
STPSAT 2 (USA 217) 4.4 19:34:05 10° NNW 19:38:37 70° ENE 19:43:07 10° SSE
NOSS 3-2 (A) 4.0 19:35:40 10° NNW 19:43:28 74° ENE 19:51:47 10° SE
ERS-2 3.5 19:43:54 10° S 19:47:20 39° W 19:50:47 10° NNW
Cosmos 2082 4.4 19:42:58 10° NNW 19:48:27 54° WSW 19:53:53 10° S
FengYun 1-2 T 4.2 19:44:04 10° SSE 19:49:34 61° ENE 19:55:07 10° N
NOSS 3-2 (C) 4.0 19:42:48 10° NNW 19:50:31 62° ENE 19:57:29 15° SE
SJ 16-02 4.2 19:49:04 10° W 19:51:13 13° WNW 19:53:23 10° NW
Cosmos 1244 Rocket 4.3 19:46:16 10° N 19:52:27 86° E 19:58:38 10° S
ALOS 3.1 19:47:59 10° S 19:52:29 49° W 19:57:01 10° NNW
CZ-3A R/B 4.1 19:20:02 10° WSW 19:56:24 52° S 19:59:03 35° SE
USA 215 4.4 19:52:21 10° SSE 19:58:24 40° SW 20:04:29 10° WNW
ATLAS 3B R/B 3.5 19:52:38 10° NW 19:58:50 46° WSW 20:04:57 10° S
Cosmos 2227 Rocket 4.0 19:55:54 10° NW 20:00:48 31° WSW 20:05:40 10° SSW
Cosmos 1553 Rocket 4.0 20:00:19 10° S 20:06:43 81° W 20:10:50 24° N
Cosmos 1980 Rocket 3.4 20:07:44 10° SW 20:13:00 39° WNW 20:15:52 24° NNW
Lacrosse 5 rocket 3.5 20:11:48 10° SSW 20:13:03 19° SSW 20:13:03 19° SSW
SL-08 R/B 4.3 20:09:40 10° N 20:15:56 86° E 20:22:07 10° S
Skynet4D Del rocket 4.0 20:13:12 10° W 20:18:36 55° SSW 20:18:36 55° SSW
Atlas Centaur 2 3.0 20:15:15 10° W 20:18:47 31° SW 20:18:47 31° SW
RESURS DK-1 4.1 20:17:45 10° SW 20:20:46 30° W 20:20:46 30° W
ISS -0.6 20:19:13 10° WNW 20:19:57 14° W 20:19:57 14° W
Thor Agena Rocket 4.4 20:24:39 41° NW 20:25:41 46° WNW 20:30:42 10° SW
CENTAUR R/B 4.0 20:32:55 10° NNW 20:37:24 35° N 20:37:24 35° N
SL-16 R/B 3.7 20:47:20 10° SSW 20:50:14 30° SW 20:50:14 30° SW
Hubble Space Telescope 4.0 20:50:56 10° WSW 20:51:09 11° WSW 20:51:09 11° WSW
Cosmos 2322 Rocket 4.0 20:53:14 10° SW 20:55:43 26° SW 20:55:43 26° SW
Cosmos 2344 3.8 20:53:00 10° SW 20:59:52 63° W 20:59:52 63° W
